Regional Weather Roundup
Issued by NWS Sterling, VA

Home | Current Version | Previous Version | Text Only | Print | Product List | Glossary Off
Versions: 1 2 3 4 5 6 7 8 9 10 11 12 13 14 15 16 17 18 19 20 21 22 23 24 25 26 27 28 29 30 31 32 33 34 35 36 37 38 39 40 41 42 43 44 45 46 47 48 49 50

000
ASUS41 KLWX 280010
RWRLWX

REGIONAL WEATHER ROUNDUP
NATIONAL WEATHER SERVICE BALTIMORE MD/WASHINGTON DC
700 PM EST THU NOV 27 2014

Note: "FAIR" indicates few or no clouds below 12,000 feet
with no significant weather and/or obstructions to visibility.
 TC=TEMPERATURE CELSIUS

 * =Non NWS site. Station does not report precipitation (e.g. rain,
    snow, etc.), thunder, or fog.

DCZ001-MDZ009-015-VAZ040>042-051-053>054-280100-
WASHINGTON METRO

CITY           SKY/WX    TMP DP  RH WIND       PRES   REMARKS
WASHINGTON NAT PTCLDY    41  28  60 W7        30.15R
DULLES         PTCLDY    34  28  79 W6        30.13R
ANDREWS AFB    MOCLDY    38  28  66 W8        30.12R
FT BELVOIR     PTCLDY    39  28  65 W7        30.14R
QUANTICO       MOCLDY    39  30  70 NW8       30.16R
COLLEGE PARK*  PTCLDY    37  32  81 CALM      30.13R
LEESBURG*      CLOUDY    37  32  81 NW10      30.13R
MANASSAS*      PTCLDY    37  32  81 W3        30.14R
GAITHERSBURG*  PTCLDY    32  27  80 CALM      30.15R

$$

MDZ006>007-011-014-280100-
BALTIMORE METRO

CITY           SKY/WX    TMP DP  RH WIND       PRES   REMARKS
BWI AIRPORT    PTCLDY    36  28  73 NW5       30.11R
MD SCIENCE CTR   N/A     38  29  70 MISG      30.12R
ANNAPOLIS      PTCLDY    40  30  67 NW3       30.12R
FORT MEADE*    PTCLDY    32  30  93 W3        30.14R

$$

MDZ012-015-019>023-280100-
MARYLAND EASTERN SHORE

CITY           SKY/WX    TMP DP  RH WIND       PRES   REMARKS
OCEAN CITY     CLEAR     34  31  88 NW5       30.09R
SALISBURY      CLEAR     37  31  78 CALM      30.10R
BAY BRIDGE AP*   N/A     39  30  70 NW9       30.12R
CAMBRIDGE*     PTCLDY    36  34  93 CALM      30.10R
EASTON*        MOCLDY    37  32  81 CALM      30.14R

$$

MDZ017>025-280100-
SOUTHERN MARYLAND

CITY           SKY/WX    TMP DP  RH WIND       PRES   REMARKS
PATUXENT RIVER MOCLDY    41  29  62 N13       30.12R
ST INIGOES     PTCLDY    40  28  62 VRB6G17   30.11R
LEONARDTOWN*   CLOUDY    39  30  70 CALM      30.13R

$$

MDZ003>005-280100-
NORTH CENTRAL MARYLAND

CITY           SKY/WX    TMP DP  RH WIND       PRES   REMARKS
FREDERICK*     CLOUDY    37  27  65 W5        30.15R
HAGERSTOWN APT CLOUDY    36  28  73 NW6       30.10R
WESTMINSTER*   CLOUDY    36  30  80 CALM      30.08S

$$

MDZ501>502-280100-
WESTERN MARYLAND

CITY           SKY/WX    TMP DP  RH WIND       PRES   REMARKS
OAKLAND*       FOG       27 N/A N/A NW9       30.05R VSB 1/2 WCI  17
CUMBERLAND*    PTCLDY    36  30  80 W10       30.17R WCI  28

$$

VAZ025>031-280100-
SHENANDOAH VALLEY

CITY           SKY/WX    TMP DP  RH WIND       PRES   REMARKS
WINCHESTER*    MOCLDY    36  25  64 W9        30.12R WCI  29
FRONT ROYAL*   MOCLDY    34  28  80 W3        30.13R
LURAY*         CLOUDY    36  30  80 SW7       30.14R
NEW MARKET*    CLOUDY    32  28  83 CALM      30.14R
STAUNTON*      CLOUDY    34  21  59 W5        30.16R
WAYNESBORO*    CLOUDY    33  23  67 W3        30.14R

$$

WVZ021-048>050-054>055-280100-
EASTERN WEST VIRGINIA PANHANDLE

CITY           SKY/WX    TMP DP  RH WIND       PRES   REMARKS
MARTINSBURG    CLOUDY    37  27  67 W10       30.12R
PETERSBURG*    FLURRIES  35  24  65 W9        30.16R WCI  28

$$

VAZ036>039-050-280100-
CENTRAL FOOTHILLS

CITY           SKY/WX    TMP DP  RH WIND       PRES   REMARKS
CHARLOTTESVILL CLEAR     37  22  54 CALM      30.15R
CULPEPER*      PTCLDY    37  30  75 CALM      30.15R
ORANGE*        MOCLDY    41  27  56 SW3       30.15R
GORDONSVILLE*  FAIR      38  24  56 W5        30.14R
WARRENTON*     FAIR      37  33  86 W6        30.13S

$$

VAZ055>057-280100-
NORTH AND CENTRAL PIEDMONT

CITY           SKY/WX    TMP DP  RH WIND       PRES   REMARKS
FREDERICKSBRG* MOCLDY    41  32  71 NW6       30.14R
STAFFORD*      MOCLDY    35  30  79 NW7       30.19R

$$

NCZ024-NYZ072-PAZ021-071-VAZ022-071-280100-
OTHER REGIONAL OBSERVATIONS

CITY           SKY/WX    TMP DP  RH WIND       PRES   REMARKS
NEW YORK CITY  CLOUDY    37  26  64 VRB6      30.05S
PHILADELPHIA   PTCLDY    37  27  67 W9        30.09R
PITTSBURGH     FLURRIES  30  24  78 W9        30.17R WCI  22
ROANOKE        CLOUDY    35  22  58 NW16      30.22R WCI  25
RICHMOND       MOCLDY    39  36  89 W5        30.13R
RALEIGH        PTCLDY    42  30  62 VRB3      30.18R

$$

ANZ530>537-280100-
MARINE OBSERVATIONS

STATION/POSITION TIME  TEMP    WIND        PRES
                       AIR SEA DIR/SP/G
                 (UTC) (F)     (DEG/KT/KT) (MB)
THOMAS PT LIGHT  0000   40 47  310/  9/ 11 1021.0R
BALT KEY BRIDGE  0000   40     290/  8/ 11 1019.5R
COVE POINT       0000   41     330/ 12/ 19 1019.5R
LEWISETTA        0000   42 48  330/ 12/ 17 1019.6R
SOLOMONS ISLAND  0000      49                N/A
PINEY POINT      0000          350/ 18/ 20   N/A

$$



USA.gov is the U.S. government's official web portal to all federal, state and local government web resources and services.